Regional Weather Roundup
Issued by NWS Kansas City/Pleasant Hill, MO

Home | Current Version | Previous Version | Text Only | Print | Product List | Glossary On
Versions: 1 2 3 4 5 6 7 8 9 10 11 12 13 14 15 16 17 18 19 20 21 22 23 24 25 26 27 28 29 30 31 32 33 34 35 36 37 38 39 40 41 42 43 44 45 46 47 48 49 50
000
ASUS43 KEAX 021310
RWREAX

WEATHER ROUNDUP FOR EASTERN KANSAS AND NORTHWEST MISSOURI
NATIONAL WEATHER SERVICE KANSAS CITY/PLEASANT HILL MO
800 AM CDT SUN AUG 02 2015

KSZ040-057-103>105-MOZ028-029-037-043-021400-
...KANSAS CITY METROPOLITAN AREA...

CITY           SKY/WX    TMP DP  RH WIND       PRES   REMARKS
K.C. INTL      MOSUNNY   75  69  81 SW9       29.93R
K.C. DOWNTOWN  SUNNY     79  67  66 SW9       29.92R
LEES SUMMIT    SUNNY     75  66  73 SW8       29.95R
OLATHE - IXD   MOSUNNY   75  67  76 S9        29.96R
OLATHE - OJC   MOSUNNY   74  68  81 SW5       29.95R
LAWRENCE       MOSUNNY   75  70  84 E3        29.93S

$$

MOZ001>008-011>017-020>025-030>033-038>040-044>046-053-054-021400-
...NORTHERN AND CENTRAL MISSOURI...

CITY           SKY/WX    TMP DP  RH WIND       PRES   REMARKS
ST. JOSEPH     MOSUNNY   74  70  87 SW6       29.91R
MOSBY          SUNNY     72  68  88 CALM      29.92S
WARRENSBURG    SUNNY     72  66  83 S6        29.95R
WHITEMAN AFB   SUNNY     72  69  89 S6        29.95R
CLINTON        SUNNY     73  70  88 CALM      29.97R
SEDALIA        MOSUNNY   74  67  78 SW9       29.97R
WARSAW         NOT AVBL
CHILLICOTHE      N/A     72  67  84 S5        29.92F
KIRKSVILLE     MOSUNNY   71  63  75 SW8       29.92F

$$

MOZ041-047>049-056>058-063>065-088>090-097-021400-
...EASTERN AND SOUTHERN MISSOURI...

CITY           SKY/WX    TMP DP  RH WIND       PRES   REMARKS
ST. LOUIS INTL MOSUNNY   79  67  66 SW6       29.97R
SPIRIT OF STL  MOSUNNY   77  68  73 CALM      29.95S
COLUMBIA       MOSUNNY   73  70  90 S5        29.96F
JEFFERSON CITY MOSUNNY   73  69  87 E3        29.96S
ROLLA          SUNNY     73  67  81 SW8       29.98S
OSAGE BEACH    MOSUNNY   73  66  78 CALM      29.99R
SPRINGFIELD    SUNNY     73  68  84 S6        30.00R
BRANSON        MOSUNNY   75  66  73 CALM      30.02R
JOPLIN         SUNNY     75  65  70 S6        29.98S
WEST PLAINS    MOSUNNY   73  67  81 CALM      30.03R

$$

IAZ060-094-KSZ022-034>040-054-083-096-NEZ052-066-093-021400-
...KANSAS...SOUTHEAST NEBRASKA AND IOWA...

CITY           SKY/WX    TMP DP  RH WIND       PRES   REMARKS
TOPEKA         SUNNY     77  68  73 SW5       29.92S
MANHATTAN      SUNNY     75  70  84 SW6       29.92R
EMPORIA        SUNNY     73  67  81 S9        29.96R
CHANUTE        SUNNY     72  66  81 SW3       29.97R
WICHITA        MOSUNNY   74  68  81 S6        29.96R
OMAHA          MOSUNNY   75  70  84 S9        29.85R
LINCOLN        MOSUNNY   77  69  76 NW6       29.89R
FALLS CITY     MOSUNNY   75  70  84 SW12      29.88S
LAMONI         CLOUDY    72  65  78 S10       29.89F
DES MOINES     CLOUDY    73  64  73 W7        29.83F

$$




USA.gov is the U.S. government's official web portal to all federal, state and local government web resources and services.